2014 Mid Michigan Girls on the Run 5k

back to results

May. 18, 2014

2014 Mid Michigan Girls on the Run 5k
Owosso, MI
Provided by Michigan Running Foundation



Mid Michigan Girls on the Run 5k 5k Run/Walk
Age Group Results
May 18, 2014
Results by: Michigan Running Foundation

Female Overall Winners

Place Name Age Overall Total Time Pace
1 Courtney Krupp 13 1 21:14.5 6:51/M

Male Overall Winners

Place Name Age Overall Total Time Pace
1 Khaled Ali 39 3 22:00.8 7:06/M

Female 12 and Under

Place Name Age Overall Total Time Pace
1 Jordyn Shipps 10 2 21:19.9 6:53/M
2 Maya Bubolz 10 5 24:27.0 7:53/M
3 Emma Smith 10 11 24:47.5 8:00/M
4 Kiley Ward 10 12 24:49.8 8:00/M
5 Kate Wescott 9 15 25:46.8 8:19/M
6 Lilly Evans 10 17 26:00.8 8:23/M
7 Lily Johnson 9 23 27:08.0 8:45/M
8 Gracie Gillard 10 27 27:23.3 8:50/M
9 Maggie Kinzer 11 28 27:34.0 8:54/M
10 Isabelle Wynn 11 29 27:36.3 8:54/M
11 Jayla Edwards 11 31 27:46.9 8:57/M
12 Emme Lantis 11 35 27:56.7 9:01/M
13 Molly Conlin 9 36 28:03.4 9:03/M
14 Amelia Kerschke 9 40 28:31.6 9:12/M
15 Monique Jackson 12 41 28:33.1 9:13/M
16 Harleigh Keast 10 44 28:36.5 9:14/M
17 Amelia Rudolph 9 45 28:45.1 9:16/M
18 Erin Sermak 8 48 29:04.1 9:23/M
19 Jessica Lacosse 10 49 29:13.1 9:25/M
20 Alile Pumford 11 50 29:15.3 9:26/M
21 Brooke Wenzlick 10 51 29:19.5 9:27/M
22 Hannah Simon 10 52 29:25.9 9:29/M
23 Taryn Gustafson 10 53 29:26.2 9:30/M
24 Morgan Bethard 9 54 29:27.1 9:30/M
25 Emmarae Vanderbush 10 56 29:31.4 9:31/M
26 Leighton Sobak 4 57 29:32.3 9:32/M
27 Hayley Lademann 11 59 29:36.0 9:33/M
28 Emma Bruckman 10 64 30:00.8 9:41/M
29 Amber Lademann 9 65 30:01.0 9:41/M
30 Mckenna Sovis 12 67 30:14.2 9:45/M
31 Valerie Saul 11 71 30:28.6 9:50/M
32 Sarah Barr 9 73 30:30.0 9:50/M
33 Emily Summerland 10 75 30:34.1 9:52/M
34 Emma Warren 8 78 30:56.7 9:59/M
35 Gillian Krupp 12 79 31:00.3 10:00/M
36 Jaeeun Seo 8 81 31:03.1 10:01/M
37 Anna Delgado 9 82 31:03.4 10:01/M
38 Madison Taylor 8 83 31:03.4 10:01/M
39 Shyla Cannon 12 85 31:08.9 10:03/M
40 Avery Beckman 9 87 31:12.2 10:04/M
41 Anastasia Andruszko 12 90 31:15.3 10:05/M
42 Mary Ann Ingram 11 92 31:23.4 10:07/M
43 Alexandra Erbe 10 94 31:31.4 10:10/M
44 Macy Wilkinson 9 95 31:31.6 10:10/M
45 Abby Refior 9 96 31:32.1 10:10/M
46 Katharine Smith 10 97 31:33.3 10:11/M
47 Sydney Smith 11 99 31:33.4 10:11/M
48 Julia Ellsworth 9 100 31:33.7 10:11/M
49 Ainsley Reigler 8 104 31:40.8 10:13/M
50 Layla Nevins 10 106 31:42.4 10:14/M
51 Allie Reynolds 12 108 31:46.4 10:15/M
52 Raven Paris 10 109 31:46.6 10:15/M
53 Addison Bethard 11 110 31:46.7 10:15/M
54 Kyra Shadduck 8 111 31:47.3 10:15/M
55 Avery Peters 11 115 31:49.8 10:16/M
56 Brielle Sovis 8 118 32:05.1 10:21/M
57 Natalie Bushey 10 119 32:07.1 10:22/M
58 Elsie Paris 9 120 32:08.9 10:22/M
59 Desiree Obuchowski 8 124 32:16.5 10:25/M
60 Emily Pumford 9 125 32:24.3 10:27/M
61 Alaina McQuillan 11 126 32:28.3 10:28/M
62 Anna Johnson 11 127 32:28.4 10:28/M
63 Katelyn McQuillan 12 128 32:28.7 10:28/M
64 Emma Johnson 9 129 32:28.7 10:28/M
65 Anatasia Charles 10 130 32:34.2 10:30/M
66 Madilyn Merritt 10 131 32:34.3 10:30/M
67 Danica Lienemann 10 135 32:37.5 10:31/M
68 Ellie Feldpausch 9 138 32:42.4 10:33/M
69 Ellie Toney 10 140 32:46.7 10:34/M
70 Jessica Schager 11 141 32:46.8 10:34/M
71 Danielle Wendling 10 143 32:47.9 10:35/M
72 Kerrigan Brown 10 144 32:50.4 10:35/M
73 Jaden Zakoor 9 145 33:00.8 10:39/M
74 Dajia Burke 7 148 33:10.1 10:42/M
75 Abigail Andruszko 10 151 33:11.6 10:42/M
76 Alyssa Smith 10 152 33:12.1 10:43/M
77 Evelyn Smith 9 155 33:13.3 10:43/M
78 Avery Butcher 10 156 33:13.8 10:43/M
79 Samara Dowding 10 157 33:15.1 10:44/M
80 Amelia Spencley 9 158 33:16.9 10:44/M
81 Alexis Vanatta 10 160 33:19.6 10:45/M
82 Alizee Holt 12 161 33:20.6 10:45/M
83 Adrienne Cohoon 9 166 33:33.1 10:49/M
84 Allyssa Lawrence 10 169 33:41.0 10:52/M
85 Claire Chrisinske 9 170 33:41.9 10:52/M
86 Caton Walter 10 171 33:42.8 10:52/M
87 Abigail Prewitt 9 172 33:42.9 10:52/M
88 Olivia Brya 10 174 33:43.2 10:53/M
89 Hadley Vanderbush 11 177 33:46.5 10:54/M
90 Alissa Betts 11 178 33:47.1 10:54/M
91 Jessica Cousineau 10 180 33:49.4 10:55/M
92 Madelyn Polleys 9 182 33:54.8 10:56/M
93 Kennedy Mallory 10 184 33:59.5 10:58/M
94 Teagan Hemmerly 9 185 33:59.8 10:58/M
95 Alexis (alli) Schubert 9 186 34:01.5 10:58/M
96 Hailie Hall 10 189 34:04.6 10:59/M
97 Piper Chan 10 191 34:05.8 11:00/M
98 Leah Gruber 12 192 34:06.7 11:00/M
99 Lauren Flegel 8 194 34:09.2 11:01/M
100 Abigail Deppen 9 195 34:10.0 11:01/M
101 Gabbie Brya 9 198 34:18.9 11:04/M
102 Lindsey Korb 9 201 34:21.6 11:05/M
103 Abby Rice 8 202 34:21.9 11:05/M
104 Sophia Garland 8 203 34:23.0 11:05/M
105 Chloe Douglas 8 206 34:28.4 11:07/M
106 Peyton Anderson 8 208 34:28.6 11:07/M
107 Karis Foster 11 209 34:29.5 11:07/M
108 Grace Joseph 11 210 34:29.7 11:07/M
109 Abigail Noonan 9 212 34:30.6 11:08/M
110 Harriet Carr 11 214 34:30.7 11:08/M
111 Olivia Ponder 12 215 34:31.7 11:08/M
112 Emily Wang 9 218 34:40.8 11:11/M
113 Reagan Bethard 8 219 34:43.5 11:12/M
114 Esther Foster 10 222 34:54.0 11:15/M
115 Kara Gillespie 10 223 34:58.5 11:17/M
116 Aubrey Bentoske 11 225 35:05.6 11:19/M
117 Grace Horton 8 229 35:12.7 11:21/M
118 Abigail Jager 9 230 35:12.9 11:21/M
119 Sydney Knauff 9 232 35:17.1 11:23/M
120 Sarah Tabone 9 236 35:17.8 11:23/M
121 Ella Kloeckner 9 237 35:18.2 11:23/M
122 Hannah Walters 12 238 35:18.3 11:23/M
123 Kylie Florian 8 241 35:19.7 11:24/M
124 Braelyn Myers 11 244 35:29.1 11:27/M
125 Sydnie Gillett 9 246 35:30.1 11:27/M
126 Malia Gonzalez 9 248 35:37.9 11:29/M
127 Claire Groom 10 251 35:41.1 11:31/M
128 Eva Fischer 8 256 35:50.6 11:34/M
129 Lacey Harvey 8 257 35:50.7 11:34/M
130 Olivia Mehay 10 262 35:59.7 11:36/M
131 Helena Harrison 10 263 35:59.9 11:36/M
132 Kate McAndrews 9 266 36:06.0 11:39/M
133 Madison Gott 11 267 36:08.7 11:39/M
134 Maliah Gonzalez 10 268 36:09.4 11:40/M
135 Alexis Culliver 9 272 36:11.9 11:40/M
136 Cecilia Harrison 8 275 36:15.0 11:42/M
137 Lauren Beck 10 277 36:16.6 11:42/M
138 Madison Way 8 278 36:16.6 11:42/M
139 Emma Luyman 10 279 36:17.1 11:42/M
140 Abigail Dawes 12 280 36:17.2 11:42/M
141 Sasha Lopez 10 283 36:21.3 11:44/M
142 Sydney MacDonald 9 284 36:23.1 11:44/M
143 Lucy Candeub 9 285 36:26.1 11:45/M
144 Mackenzie Karsten 11 286 36:26.2 11:45/M
145 Neelege Sims 9 289 36:31.7 11:47/M
146 Joslyn Hofstetter 9 291 36:34.9 11:48/M
147 Madelyn Martinson 8 292 36:36.1 11:48/M
148 Elaina Schuesler 10 294 36:38.2 11:49/M
149 Tessa Rollins 9 298 36:43.6 11:51/M
150 Lily Vandendries 9 299 36:43.6 11:51/M
151 Makenna Vanbelkum 11 300 36:44.4 11:51/M
152 Abigail Fults 10 301 36:44.6 11:51/M
153 Lauren Schorfhaar 9 302 36:45.4 11:51/M
154 Mallory Reynolds 10 305 36:47.9 11:52/M
155 Alison Ashbrook 8 306 36:48.4 11:52/M
156 Emma Shover 10 308 36:50.0 11:53/M
157 Nicole Luebs 9 310 36:50.4 11:53/M
158 Skyler Holmes 10 313 36:54.9 11:54/M
159 Julia Kelleher 8 315 36:58.3 11:55/M
160 Quincy Tressel 10 316 36:58.5 11:55/M
161 Karah Preston 10 319 36:59.7 11:56/M
162 Chloe Whitney 9 320 37:03.8 11:57/M
163 Grace Gaines 11 323 37:11.1 12:00/M
164 Taylor Stinson 10 324 37:12.4 12:00/M
165 Aurora Dardas 9 326 37:17.1 12:02/M
166 Erin Brodberg 11 328 37:20.2 12:03/M
167 Hannah Cooper 9 330 37:23.2 12:04/M
168 Cadence Kirby 11 332 37:24.4 12:04/M
169 Victoria Benjamin 10 334 37:28.5 12:05/M
170 Charlotte Kirschner 9 335 37:31.8 12:06/M
171 Arwa Ali 9 337 37:33.4 12:07/M
172 Breonna Woodruff 9 339 37:37.3 12:08/M
173 Sarah Hamel 9 341 37:40.3 12:09/M
174 Cecilia Wilber 10 345 37:46.6 12:11/M
175 Audrey Mitchell 9 347 37:47.2 12:11/M
176 Nevaeh Wyper 10 350 37:48.1 12:12/M
177 Brooklyn Zakoor 8 351 37:49.4 12:12/M
178 Mariah Hall 10 352 37:59.0 12:15/M
179 Olivia Winans 10 354 37:59.9 12:15/M
180 Delaney Bentoske 9 358 38:06.5 12:17/M
181 Kalyn Wilkey 10 361 38:11.4 12:19/M
182 Leah Miller 8 362 38:12.0 12:19/M
183 Emma Numerich 12 363 38:13.0 12:20/M
184 Ava Bott 7 364 38:20.5 12:22/M
185 Madison Daenzer 10 365 38:21.7 12:22/M
186 Mya Lamay 10 368 38:26.7 12:24/M
187 Madison Denman 10 370 38:27.8 12:24/M
188 Miranda Nixon 8 372 38:32.3 12:26/M
189 Emalee Noonan 8 374 38:34.4 12:26/M
190 Olivia Jolly 9 375 38:37.2 12:27/M
191 Emily Adado 09 377 38:40.0 12:28/M
192 Woonkyeong Kim 9 380 38:44.1 12:30/M
193 Shriya Kethireddy 9 383 38:45.4 12:30/M
194 Teagan Vanderklok 10 385 38:45.6 12:30/M
195 Alyssa Crane 10 386 38:45.6 12:30/M
196 Molly Eickholt 9 388 38:50.2 12:32/M
197 Ava Gatza 8 391 38:51.7 12:32/M
198 Amanda Van Dusen 11 393 39:00.5 12:35/M
199 Harper Wilkinson 9 395 39:02.6 12:35/M
200 Sydney Black 12 397 39:06.4 12:37/M
201 Jamie Diedrich 10 401 39:13.4 12:39/M
202 Paloma (mona) Dunn 8 405 39:25.4 12:43/M
203 Jillian Klaver 10 406 39:26.3 12:43/M
204 Hannah Rawles 10 410 39:28.6 12:44/M
205 Norah Logan 8 411 39:30.8 12:45/M
206 Kathryn Michon 10 413 39:31.2 12:45/M
207 Elissa Weinrick 10 415 39:34.6 12:46/M
208 Julia Burk 8 417 39:35.8 12:46/M
209 Victoria Potter 11 419 39:36.2 12:46/M
210 Claire Boynton 10 420 39:37.1 12:47/M
211 Ella Franklin 9 421 39:37.3 12:47/M
212 Kallie Breslin 8 422 39:38.3 12:47/M
213 Alexis Fox-Kimewon 10 427 39:44.8 12:49/M
214 Alysiana Broughman 11 428 39:48.4 12:50/M
215 Hailey Rolfe 8 431 39:52.3 12:52/M
216 Marissa Montgomery 9 433 39:52.4 12:52/M
217 Maddie Tibbits 8 435 39:54.3 12:52/M
218 Gracie Crowe 8 436 40:01.6 12:55/M
219 Zara Hertafeld 10 439 40:08.0 12:57/M
220 Ellie Trudeau 9 440 40:08.1 12:57/M
221 Xianyi Zhao 10 441 40:08.3 12:57/M
222 Samantha Birchmeier 11 444 40:13.3 12:58/M
223 Olivia Birchmeier 9 445 40:14.7 12:59/M
224 Rachel Ross 8 447 40:16.0 12:59/M
225 Kristine Belding 12 449 40:17.7 13:00/M
226 Jordyn Hawley 9 450 40:18.1 13:00/M
227 Maggie Gross 11 451 40:19.2 13:00/M
228 Alyson Shane 8 452 40:19.9 13:00/M
229 Alexandrea Ladiski 10 456 40:32.1 13:05/M
230 Leah Hajek 8 459 40:34.2 13:05/M
231 Carmen Connelly 10 460 40:36.9 13:06/M
232 Xochitl Kwasnik 10 461 40:37.1 13:06/M
233 Jenna Belmas 10 462 40:40.4 13:07/M
234 Cora Hoeft 10 463 40:41.1 13:07/M
235 Morgan Nobach 11 465 40:48.3 13:10/M
236 Ellecia Wolf 11 466 40:50.4 13:10/M
237 Alexandria Charles 9 468 40:50.8 13:10/M
238 Julia Martin 11 469 40:51.4 13:11/M
239 Zoey Schnebelt 10 470 40:51.7 13:11/M
240 Elsa Elhenicky 7 473 40:58.0 13:13/M
241 Alesia Doctor 10 474 40:59.3 13:13/M
242 Hadley Doll 9 476 41:01.0 13:14/M
243 Sophie Wojewoda-Russell 8 477 41:01.3 13:14/M
244 Addison Spagnuolo 9 480 41:14.3 13:18/M
245 Jadyn Johnson 9 482 41:24.7 13:21/M
246 Kaley Boyle 8 484 41:26.8 13:22/M
247 Olivia Delgado 11 487 41:31.2 13:24/M
248 Jordan Gohn 10 488 41:31.7 13:24/M
249 Deshaya Reed 11 490 41:35.4 13:25/M
250 Makenna Hatherill 10 492 41:38.1 13:26/M
251 Jenna Gutting 10 493 41:38.1 13:26/M
252 Sophie Phillips 11 494 41:39.8 13:26/M
253 Lily Carlson 10 496 41:40.0 13:26/M
254 Alicia Gutierrez-Jackson 12 499 41:43.2 13:27/M
255 Naudia Perez-Wardlow 12 500 41:43.3 13:27/M
256 Chloe Earl 11 503 41:45.6 13:28/M
257 Madison Diebler 11 504 41:54.0 13:31/M
258 Ella Sheedlo 11 507 42:04.8 13:34/M
259 Emma Bishop 8 510 42:09.2 13:36/M
260 Alexis Bailey 11 512 42:12.0 13:37/M
261 Kianna Sleight 12 513 42:12.1 13:37/M
262 Madeline Eustace 9 515 42:12.6 13:37/M
263 Bailey Denslow 8 516 42:16.7 13:38/M
264 Alicea Heady 12 518 42:17.9 13:38/M
265 Abigail Smith 12 522 42:23.2 13:40/M
266 Mary Draher 9 523 42:23.3 13:40/M
267 Avalynn Nobach 8 526 42:30.8 13:43/M
268 Peyton Hughes 8 527 42:30.9 13:43/M
269 Nora Staszewski 8 530 42:32.1 13:43/M
270 Haley Vincke 10 531 42:34.1 13:44/M
271 Julianna Loomis 8 532 42:36.2 13:45/M
272 Grace Wininger 9 533 42:37.4 13:45/M
273 Claire Wininger 11 535 42:43.6 13:47/M
274 Eliza Latunski 9 537 42:47.0 13:48/M
275 Lucy Roberts 6 538 42:47.2 13:48/M
276 Lauren Tabone 9 540 42:52.1 13:50/M
277 Mackenizie Hoy 12 542 42:53.4 13:50/M
278 Jenna Corey 10 546 42:57.6 13:51/M
279 Si Yun Kimball 11 548 43:00.9 13:52/M
280 Samantha Weeks 8 549 43:02.0 13:53/M
281 Shikha Nukala 9 550 43:02.3 13:53/M
282 Zoe Singh 10 551 43:02.4 13:53/M
283 Elizabeth Rapson 9 555 43:04.5 13:54/M
284 Marissa Moeggenborg 8 556 43:04.5 13:54/M
285 Sofia Chavez 9 559 43:10.7 13:55/M
286 Kayla Bauer 9 561 43:19.0 13:58/M
287 Carma Brown 9 565 43:22.5 13:59/M
288 Abby Frushour 9 566 43:23.7 14:00/M
289 Kierstin Kilpatrick 11 569 43:27.0 14:01/M
290 Henna Nellis 9 570 43:30.0 14:02/M
291 Hannah Rau 12 572 43:30.4 14:02/M
292 Makayla Lienau 11 573 43:31.1 14:02/M
293 Alivia Angst 12 574 43:31.3 14:02/M
294 Charlotte Werth 9 577 43:33.8 14:03/M
295 Uma Kulkarni 9 578 43:42.3 14:06/M
296 Lorelei Weinrick 6 579 43:49.5 14:08/M
297 Olivia Lindsey 10 580 43:49.6 14:08/M
298 Alaina Pabbathi 8 582 43:50.2 14:08/M
299 Kiley Murray 8 583 43:50.3 14:08/M
300 Gabrielle Stafford 8 584 43:50.5 14:08/M
301 Olivia Leitelt 10 587 43:51.9 14:09/M
302 Meadow Sudall 9 590 44:02.3 14:12/M
303 Georgia McKay 9 592 44:06.9 14:14/M
304 Lindsey Wendling 10 596 44:11.0 14:15/M
305 Raygen Jaques 8 599 44:12.3 14:15/M
306 Mirabel Smith 8 600 44:14.5 14:16/M
307 Lilly Pumford 06 601 44:15.1 14:16/M
308 Kennedy McAlpine 9 604 44:23.2 14:19/M
309 Emma Burgess 8 605 44:23.9 14:19/M
310 Alexis Miller 8 606 44:24.2 14:19/M
311 Kayla White 11 608 44:26.2 14:20/M
312 Casey Thatcher 10 611 44:28.1 14:21/M
313 Kayla Thatcher 12 612 44:28.5 14:21/M
314 Payton Gutting 8 613 44:32.9 14:22/M
315 Samantha Diehl 9 618 44:39.4 14:24/M
316 Cali Williams 11 619 44:39.5 14:24/M
317 Haniya Shareef 10 627 44:44.0 14:26/M
318 Alexandra Loveridge 11 628 44:44.6 14:26/M
319 Haley Carpenter 9 630 44:45.9 14:26/M
320 Maria McCreadie 11 636 45:03.8 14:32/M
321 Danielle Adler 10 637 45:11.3 14:35/M
322 Alexandra Holbrook 10 642 45:34.1 14:42/M
323 Raegan Taylor 8 645 45:35.3 14:42/M
324 Julia Brown 10 646 45:39.7 14:44/M
325 Julia Holden 10 648 45:40.7 14:44/M
326 Lillian Swartzmiller 9 652 45:46.3 14:46/M
327 Lauren Handspike 9 654 45:50.5 14:47/M
328 Laura Belding 10 655 45:51.3 14:47/M
329 Olivia Fishel 8 657 45:53.2 14:48/M
330 Carmen Kwasnik 8 658 45:53.7 14:48/M
331 Megan Ettinger 11 661 46:02.2 14:51/M
332 Delaney Babb 8 663 46:11.1 14:54/M
333 Anna Vansplintern 10 665 46:16.4 14:55/M
334 Melanie Merritt 8 666 46:16.5 14:55/M
335 Xintian Wang 10 667 46:20.1 14:57/M
336 Seoah An 9 670 46:21.9 14:57/M
337 Kaelynn Walworth 6 672 46:23.0 14:58/M
338 Reagan McCarthy 9 674 46:27.0 14:59/M
339 Avery Krupp 8 675 46:27.3 14:59/M
340 Alexis Remington-Hart 9 680 46:31.0 15:00/M
341 Lucy Marsh 10 681 46:31.2 15:00/M
342 Isabella Kennedy 10 682 46:33.4 15:01/M
343 Charlotte Hartges 9 683 46:36.1 15:02/M
344 Audrey Reagan 9 685 46:42.2 15:04/M
345 Atuganile Ngasala 9 688 46:45.3 15:05/M
346 Aliyah Isaac 10 689 46:49.9 15:06/M
347 Olivia Vicary 10 691 46:56.9 15:08/M
348 Sophia Juarez 9 693 46:59.5 15:09/M
349 Lauren Sinila 9 695 46:59.8 15:09/M
350 Megan Ladiski 11 700 47:12.6 15:14/M
351 Karlie Defrenn 10 703 47:19.8 15:16/M
352 Camari Hamilton 12 709 47:34.6 15:21/M
353 Violet Hunt 8 711 47:39.0 15:22/M
354 Savannah Wallace 10 712 47:45.7 15:24/M
355 Jasmine Smith-Williams 11 713 47:46.2 15:25/M
356 Lauren Mahler 9 714 47:47.0 15:25/M
357 Lillian Warren 10 716 47:51.6 15:26/M
358 Savannah Dansby 8 721 48:44.1 15:43/M
359 Adriana Seymour 12 727 49:02.8 15:49/M
360 Sophia French 12 728 49:03.6 15:49/M
361 Ana Rodriquez 08 731 49:06.0 15:50/M
362 Kenzie Ayotte 9 733 49:06.7 15:50/M
363 Jordyn Lawrence 8 734 49:08.5 15:51/M
364 Grace Ingram 9 735 49:13.9 15:53/M
365 Felicia Richmond 9 736 49:15.3 15:53/M
366 Ashlyn Orr 8 738 49:17.2 15:54/M
367 Jaime Cline 12 740 49:20.1 15:55/M
368 Taylor Spielman 05 741 49:20.3 15:55/M
369 Karalee Beemer 10 744 49:23.1 15:56/M
370 Hailey Strachan 08 745 49:23.3 15:56/M
371 Kylee Black 11 746 49:23.4 15:56/M
372 Lacey Wandrie 8 747 49:23.4 15:56/M
373 Winter Lowe 11 749 49:25.2 15:56/M
374 Xeonna Fields 9 750 49:25.6 15:56/M
375 Emily Smith 9 751 49:26.5 15:57/M
376 Aimee Smith 10 753 49:27.4 15:57/M
377 Andreya Nauslar 9 757 49:31.3 15:58/M
378 Ella Smewing 11 760 49:59.5 16:07/M
379 Madison Kennedy 12 765 50:17.0 16:13/M
380 Shreya Doshi 9 767 50:19.3 16:14/M
381 Kate Easlick 9 769 50:28.6 16:17/M
382 Kera Spaeth 10 771 50:31.0 16:18/M
383 Brianna Hix 11 775 50:39.2 16:20/M
384 Molly Winson 8 777 50:40.9 16:21/M
385 Paighton Argue 10 778 50:45.9 16:22/M
386 Rachel Franks 11 780 50:48.4 16:23/M
387 Rebecca Marvin 11 781 50:48.4 16:23/M
388 Ella Coulter 10 782 50:49.1 16:24/M
389 Mya Foster 10 783 50:49.1 16:24/M
390 Cameron Phillipich 8 784 50:50.5 16:24/M
391 Cadette Thelen 8 785 51:06.8 16:29/M
392 Isabella St Clair 9 786 51:06.8 16:29/M
393 Zoe Cantu 11 788 51:08.3 16:30/M
394 Emaleigh Keast 8 790 51:15.8 16:32/M
395 Natalie Loomis 8 791 51:16.4 16:32/M
396 Jocelyn Brown 07 795 51:26.2 16:35/M
397 Regan Dewley 9 796 51:27.7 16:36/M
398 Leah Marek 9 798 51:31.5 16:37/M
399 Emily Ladiski 9 800 51:35.3 16:38/M
400 Kaylee Seger 9 801 51:38.2 16:39/M
401 Delaney Hamilton 10 803 51:41.9 16:40/M
402 Jenna Anderson 10 806 51:42.3 16:41/M
403 Vanessa Haman 9 807 51:42.7 16:41/M
404 Emersyn Miller 8 809 51:59.9 16:46/M
405 Sophia Stiles 8 810 52:02.9 16:47/M
406 Blake Johnson 11 813 52:15.9 16:51/M
407 Riley Kerschke 7 814 52:22.9 16:54/M
408 Erica Sliwa 10 816 52:23.7 16:54/M
409 Kathrine Keeley 8 818 52:24.3 16:54/M
410 Bridget Johnson 11 819 52:26.0 16:55/M
411 Tessa Patterson 11 820 52:27.4 16:55/M
412 Madison Geyer 11 823 52:29.5 16:56/M
413 Mya Reynolds 9 824 52:39.3 16:59/M
414 Ellie Plascencia 9 825 52:39.5 16:59/M
415 Emma Precise 10 826 52:40.7 16:59/M
416 Rachel Yager 10 828 52:41.3 17:00/M
417 Jessa Gibson 9 829 52:41.7 17:00/M
418 Montana Hernandez 10 830 52:42.0 17:00/M
419 Aniah Buck 10 831 52:44.9 17:01/M
420 Madelyn Greenburg 9 832 52:46.0 17:01/M
421 Corina Hernandez 9 839 52:58.8 17:05/M
422 Ava Singh 11 842 53:00.0 17:06/M
423 Lara Adolphson 9 843 53:00.8 17:06/M
424 Abigail Lautzenheiser 8 844 53:01.2 17:06/M
425 Alle Bazela 9 846 53:17.4 17:11/M
426 Makena Newman 9 848 53:20.1 17:12/M
427 Kaily Kribs 10 850 53:23.8 17:13/M
428 Brynne Birchmeier 8 852 53:27.6 17:15/M
429 Anna Hicks 9 853 53:39.2 17:18/M
430 Olivia King 11 856 53:51.6 17:22/M
431 Kayla Barkley 11 857 54:18.8 17:31/M
432 Carmel Eiland 7 858 54:18.8 17:31/M
433 Rachel Follman 11 859 54:44.5 17:39/M
434 Madison Kirby 9 862 54:49.9 17:41/M
435 Laney Ekleberry 10 864 55:03.2 17:45/M
436 Rylee Spayde 8 865 55:14.5 17:49/M
437 Summer Darlingl 9 869 55:26.9 17:53/M
438 Victoria Jefferson 11 870 55:32.1 17:55/M
439 Zenaida Tristan-Perez 9 871 55:45.5 17:59/M
440 Vada Tanner 8 874 55:49.2 18:00/M
441 Abigail Munro 9 877 55:57.9 18:03/M
442 Bailley Powers 8 878 56:23.7 18:11/M
443 Brooklyn Chambers 10 880 56:27.3 18:13/M
444 Kathryn Wilhelm 10 882 56:33.2 18:15/M
445 Kyra Metzer 9 883 56:33.7 18:15/M
446 Taylor Friend 4 887 56:43.4 18:18/M
447 Eleanor De Los Santos 8 888 57:00.0 18:23/M
448 Nicole Horn 09 892 57:09.2 18:26/M
449 Claudia Hanley 9 893 57:10.5 18:26/M
450 Anaya Powell 12 896 57:13.0 18:27/M
451 Alexis Desander 8 898 57:19.2 18:29/M
452 Abbigail Mullaly 11 901 57:53.5 18:40/M
453 Emily Adado 9 902 58:07.3 18:45/M
454 Alexis Dilts 10 904 1:01:16.1 19:46/M

Male 12 and Under

Place Name Age Overall Total Time Pace
1 Viraj Nukala 11 8 24:41.4 7:58/M
2 Evan Wendling 12 9 24:44.0 7:59/M
3 Ben Smith 09 13 25:37.5 8:16/M
4 Austin Smith 11 20 26:18.4 8:29/M
5 Connar Goth 09 21 26:49.1 8:39/M
6 Jonah Candeub 12 38 28:18.5 9:08/M
7 Kenny Evans 08 46 29:00.7 9:21/M
8 Spencer Sobak 2 61 29:38.0 9:34/M
9 Julian Weinrick 8 165 33:32.6 10:49/M
10 Robby Burk 12 188 34:02.8 10:59/M
11 Dominic Van Dusen 8 228 35:11.8 11:21/M
12 Tyler Dewley 9 253 35:49.3 11:33/M
13 Logan Zakoor 12 258 35:54.4 11:35/M
14 Taylor Roberts 8 270 36:11.5 11:40/M
15 Landon Rooney 10 552 43:03.1 13:53/M
16 Kohen Gillespie 12 623 44:42.7 14:25/M
17 Michael Bushey 09 660 45:57.9 14:49/M
18 Ryan Kinzer 7 696 47:07.8 15:12/M
19 Mikeal Ingram 06 706 47:30.4 15:19/M
20 Sean Dewley 12 903 59:01.9 19:02/M

Female 13 to 17

Place Name Age Overall Total Time Pace
1 Emma Breukiak 13 16 25:52.6 8:21/M
2 Byyn Mehay 13 26 27:19.0 8:49/M
3 Megan Vondrasek 13 91 31:20.6 10:06/M
4 Victoria Auten 16 112 31:47.9 10:15/M
5 Olivia Plath 16 139 32:45.5 10:34/M
6 Morgan Fowler 16 173 33:42.9 10:52/M
7 Chanelle Jones 16 213 34:30.7 11:08/M
8 Tawny Dibble 17 216 34:36.8 11:10/M
9 Mikayla Fairchild 17 226 35:05.9 11:19/M
10 Briana Kloeckner 16 235 35:17.6 11:23/M
11 Jaclyn Oliver 14 252 35:42.6 11:31/M
12 Madeleine Smith 13 282 36:18.7 11:43/M
13 Stevie Church 17 314 36:54.9 11:54/M
14 Kailyn Fairchild 16 355 38:02.3 12:16/M
15 Ashley Burk 16 396 39:06.0 12:37/M
16 Kalina Hertafeld 16 442 40:08.5 12:57/M
17 Kalia Dilworth 13 453 40:25.6 13:02/M
18 Ayla Buren 14 454 40:27.3 13:03/M
19 Paris Leek 13 485 41:30.2 13:23/M
20 Paige Buren 14 489 41:35.3 13:25/M
21 Danielle Hankerd 15 502 41:45.2 13:28/M
22 Zoe Otte 13 545 42:55.8 13:51/M
23 Katie Clifford 16 610 44:26.7 14:20/M
24 Chyanne Manning 15 621 44:40.5 14:25/M
25 Carly Schnebelt 13 640 45:21.7 14:38/M
26 Kiara McNinch 13 662 46:03.8 14:51/M
27 Hannah Vicary 16 692 46:58.1 15:09/M
28 Kira Rivet 13 697 47:08.3 15:12/M
29 Cassidy Engel 13 725 48:55.5 15:47/M
30 Savannah Stevens-Johnson 14 726 49:02.6 15:49/M
31 Zayna Suleiman 13 732 49:06.7 15:50/M
32 Brianna McAuliffe 16 787 51:07.7 16:29/M
33 Morgan Larkin 16 817 52:24.3 16:54/M
34 Danta Borring 16 873 55:48.3 18:00/M
35 Kayla Huckabee 17 884 56:36.5 18:15/M
36 Mohogany Wells 13 891 57:04.9 18:25/M

Male 13 to 17

Place Name Age Overall Total Time Pace
1 Dylan Cannon 17 84 31:08.8 10:03/M
2 Madison Antes 16 183 33:58.3 10:57/M
3 Chainy Schnebelt 15 259 35:54.9 11:35/M
4 Brendan Dewley 13 260 35:57.6 11:36/M
5 Charles Sims 15 288 36:31.4 11:47/M
6 Scott Sheedlo 17 508 42:08.8 13:35/M
7 Brandon Blair 15 748 49:25.1 15:56/M
8 Kaleb Toney 15 752 49:26.5 15:57/M

Female 18 to 29

Place Name Age Overall Total Time Pace
1 Ashley Corey 23 107 31:43.3 10:14/M
2 Jessica Schneider 23 123 32:16.4 10:25/M
3 Amy Helms 25 153 33:12.8 10:43/M
4 Connie Fitzpatrick 27 168 33:41.0 10:52/M
5 Alyson Jessel 28 179 33:48.6 10:54/M
6 Ashlee Shenk 29 190 34:05.8 11:00/M
7 Jasmine Knauff 29 233 35:17.2 11:23/M
8 Meagan Hokzman 19 245 35:29.7 11:27/M
9 Katrina Kerouac 20 338 37:37.1 12:08/M
10 Victoria Eggers 20 340 37:38.5 12:08/M
11 Breanne Mason 24 346 37:46.9 12:11/M
12 Tina Wilkey Wilkey 18 360 38:11.4 12:19/M
13 Jamie Thompson 25 382 38:45.3 12:30/M
14 Amanda Decker 18 389 38:50.2 12:32/M
15 Cara Keay 29 390 38:51.5 12:32/M
16 Megan Williams 24 400 39:12.6 12:39/M
17 Kylie Smith 23 418 39:36.0 12:46/M
18 Carolyn Wiese 20 423 39:38.3 12:47/M
19 Katherine Kuhne 19 424 39:38.7 12:47/M
20 Rebecca Ross 20 446 40:15.5 12:59/M
21 Lauren Clark 19 475 41:01.0 13:14/M
22 Jaclyn Williams 26 521 42:22.1 13:40/M
23 Rachel Kolb 18 557 43:04.6 13:54/M
24 Caitlin Jordan 22 558 43:05.3 13:54/M
25 Christine Garver 19 576 43:33.6 14:03/M
26 Adrienne Young 27 609 44:26.3 14:20/M
27 Amy Olivaraz 28 624 44:43.6 14:25/M
28 Jamie Horn 23 626 44:43.7 14:25/M
29 Lori Alward 28 633 45:01.9 14:31/M
30 Andrea Lunsted 26 653 45:49.4 14:47/M
31 Amber Mazur 21 664 46:11.2 14:54/M
32 Erica Nishon 25 678 46:30.0 15:00/M
33 Lexi Justice 23 679 46:30.4 15:00/M
34 Kait Stockheimer 25 687 46:44.4 15:05/M
35 Emily Wesley 18 694 46:59.8 15:09/M
36 Angela Wojcik 24 698 47:08.7 15:12/M
37 Kara Peters 28 708 47:34.5 15:21/M
38 Nicole Wilson 24 722 48:44.2 15:43/M
39 Sarah Strachan 28 743 49:23.0 15:56/M
40 Rachel Maurer 29 754 49:27.6 15:57/M
41 Kelsey Herrington 18 802 51:38.3 16:39/M
42 Stephanie Haman 23 805 51:42.1 16:41/M
43 Chelsea Kuchar 24 866 55:14.7 17:49/M
44 Megan Friend 29 886 56:42.5 18:17/M

Male 18 to 29

Place Name Age Overall Total Time Pace
1 Tyler Ellsworth 19 102 31:34.8 10:11/M
2 Phillips Ashbrook 23 307 36:48.8 11:52/M
3 Cody Haddrill 18 312 36:54.7 11:54/M
4 Nathan Garfield 20 369 38:27.6 12:24/M
5 Blake Thorne 27 409 39:28.4 12:44/M
6 Evan Gagnon 20 414 39:31.6 12:45/M
7 Brandon Powers 18 879 56:24.8 18:12/M

Female 30 to 40

Place Name Age Overall Total Time Pace
1 Amanda Johnson 36 4 24:18.3 7:50/M
2 Alesha Miller 35 7 24:37.0 7:56/M
3 Stephanie Edwards 38 30 27:46.7 8:57/M
4 Kara Sobak 32 58 29:34.3 9:32/M
5 Jansha Looper 34 72 30:29.0 9:50/M
6 Nichole Martinson 34 74 30:31.4 9:51/M
7 Tammy Smith 40 98 31:33.4 10:11/M
8 Charissa Shadduck 36 113 31:48.2 10:15/M
9 Kelly Merritt 35 132 32:34.7 10:30/M
10 Misty Fitzpatrick 30 134 32:37.1 10:31/M
11 Andrea Beldyga 31 147 33:08.0 10:41/M
12 Susanna Burke 39 149 33:10.8 10:42/M
13 Rebecka Butcher 39 164 33:24.5 10:46/M
14 Erin Cohoon 35 167 33:33.4 10:49/M
15 Shannon Barr 40 176 33:45.9 10:53/M
16 Sarah Brya 37 197 34:18.8 11:04/M
17 Kimberly Garland 37 204 34:23.8 11:05/M
18 Heather Nolen 34 207 34:28.5 11:07/M
19 Elizabeth Bethard 37 220 34:43.7 11:12/M
20 Carol Murray 38 239 35:18.3 11:23/M
21 Laura Michels 37 240 35:19.3 11:24/M
22 Shallon Everett 36 254 35:50.4 11:34/M
23 Tara Fischer 39 255 35:50.6 11:34/M
24 Megan Melrose 30 264 36:01.1 11:37/M
25 Kim Liman 39 269 36:09.5 11:40/M
26 Melissa Roberts 34 271 36:11.7 11:40/M
27 Michelle Culliver 37 273 36:12.3 11:41/M
28 Patricia Paris 38 274 36:14.3 11:41/M
29 Tara Harrison 38 276 36:16.2 11:42/M
30 Stephanie Kloeckner 38 295 36:38.4 11:49/M
31 Vivien MacDonald 37 296 36:40.0 11:50/M
32 Shelly Vandendries 37 303 36:45.5 11:51/M
33 Erica Shover 37 309 36:50.1 11:53/M
34 Katie Flannery 39 318 36:59.7 11:56/M
35 Megan Tressel 39 325 37:15.9 12:01/M
36 Rebecca McAndrews 33 344 37:46.2 12:11/M
37 Dianne Wyper 36 349 37:47.8 12:11/M
38 Betsy Herrick 38 356 38:05.2 12:17/M
39 Erica Baca 32 357 38:05.6 12:17/M
40 Ginger Zaker 31 359 38:09.2 12:18/M
41 Amanda Lampron 33 366 38:21.7 12:22/M
42 Jennifer Lamay 38 367 38:26.1 12:24/M
43 Stephanie Horton 35 378 38:40.7 12:28/M
44 Cindi Robinson 32 384 38:45.5 12:30/M
45 Justina Miller 37 392 38:57.4 12:34/M
46 Amanda Newman 32 399 39:08.7 12:37/M
47 Megan Logan 39 412 39:30.8 12:45/M
48 Judy Burk 36 416 39:35.0 12:46/M
49 Jamie Roy 36 425 39:44.5 12:49/M
50 Abbie Broughmar 33 429 39:49.2 12:51/M
51 Allison Larson 37 430 39:51.7 12:51/M
52 Kelly Hawley 35 448 40:17.7 13:00/M
53 Holly Hemgberg 34 464 40:41.4 13:07/M
54 Lyndsay Cook 34 472 40:52.6 13:11/M
55 Amanda Spagnuolo 36 481 41:15.5 13:18/M
56 Shawna Boyle 38 483 41:26.6 13:22/M
57 Stacey Johnson 33 486 41:30.7 13:23/M
58 Stephanie Hatherill 40 491 41:37.9 13:25/M
59 Jessica Earl 39 501 41:45.1 13:28/M
60 Tonia Denslow 35 517 42:17.1 13:38/M
61 Lisa Nobach 36 525 42:30.6 13:43/M
62 Amy Doerner 32 539 42:48.8 13:48/M
63 Jessica Warren 33 541 42:52.6 13:50/M
64 Stacy Loomis 37 563 43:19.6 13:58/M
65 Emily Frushour 35 567 43:24.8 14:00/M
66 Heather Erbe 38 568 43:26.8 14:01/M
67 Hayley Nellis 39 571 43:30.3 14:02/M
68 Kelly Stafford 36 586 43:50.8 14:08/M
69 Rhianna Walworth 34 589 44:01.7 14:12/M
70 Lona Oliver 34 595 44:10.3 14:15/M
71 Shayna Smith 32 602 44:15.7 14:16/M
72 Kasey Gillespie 38 625 44:43.7 14:25/M
73 Pamela McHugh 38 631 44:53.5 14:29/M
74 Stephanie Stroup 36 634 45:01.9 14:31/M
75 Karyn Delorge 34 635 45:03.6 14:32/M
76 Jill Holden 40 647 45:39.8 14:44/M
77 Melissa Gould 32 649 45:41.3 14:44/M
78 Cynthia Sprague 33 668 46:20.9 14:57/M
79 Jennifer Miller 40 669 46:21.5 14:57/M
80 Heather Walworth 37 671 46:22.4 14:57/M
81 Missy McCarthy 37 673 46:25.9 14:58/M
82 Erika Reagan 38 686 46:43.3 15:04/M
83 Sarah Bushey 38 702 47:13.4 15:14/M
84 Amber Hunt 34 710 47:38.3 15:22/M
85 Amber Ladiski 39 717 47:57.3 15:28/M
86 Amy Maier 38 718 48:11.6 15:33/M
87 Rachel Sulre 30 719 48:32.4 15:39/M
88 Danita McNinch 36 720 48:43.3 15:43/M
89 Bridget Spielman 35 742 49:20.6 15:55/M
90 Jessica Douglas 31 758 49:50.2 16:05/M
91 Laurie Shuser 34 761 50:02.2 16:08/M
92 Mary Kerschke 37 762 50:08.0 16:10/M
93 Stephanie Lemmer 40 766 50:17.4 16:13/M
94 Carrie Shelby 35 772 50:33.4 16:18/M
95 Saran Easher 35 773 50:33.4 16:18/M
96 Kelley Mallinax 38 776 50:40.8 16:21/M
97 Janelle Hughes 34 779 50:47.3 16:23/M
98 Sally Brege 36 794 51:26.2 16:35/M
99 Lynette Dewley 38 797 51:29.5 16:36/M
100 Heather Miller 36 808 51:53.1 16:44/M
101 Stacy Ellis 34 822 52:28.7 16:55/M
102 Jeanine Allesie 40 827 52:41.0 17:00/M
103 Heather Booher 33 833 52:46.5 17:01/M
104 Jennifer Greenburg 39 834 52:47.4 17:02/M
105 Tammy Salazar 40 838 52:58.4 17:05/M
106 Carrie Liebrock 37 840 52:59.6 17:05/M
107 Shelley Wilkinson 38 841 53:00.0 17:06/M
108 Christina Newman 34 847 53:20.1 17:12/M
109 Melissa Whalen 34 860 54:46.1 17:40/M
110 Michele Follman 31 861 54:47.6 17:40/M
111 Tonia Lilly 34 863 54:59.8 17:44/M
112 Laura Thiel 32 867 55:24.6 17:52/M
113 Deborah Schaefer 36 868 55:26.2 17:53/M
114 Meghan Ritchey 33 872 55:47.7 18:00/M
115 Amal Ibourk 36 889 57:00.6 18:23/M
116 Stalie Desander 38 899 57:38.6 18:35/M
117 Rebecca Hanley 33 900 57:39.5 18:36/M

Male 30 to 40

Place Name Age Overall Total Time Pace
1 Brad Follman 36 43 28:34.8 9:13/M
2 Bill Sermak 39 47 29:03.7 9:22/M
3 Clay Bethard 39 55 29:27.3 9:30/M
4 Steven Sobak 36 60 29:38.0 9:34/M
5 Mike Miller 40 103 31:37.8 10:12/M
6 Chris Shadduck 38 114 31:48.3 10:15/M
7 Joe Bushey 36 122 32:09.8 10:22/M
8 Josh Zakoor 33 146 33:00.9 10:39/M
9 Mike Vanatta 33 159 33:19.1 10:45/M
10 Craig Schubert 38 187 34:01.7 10:58/M
11 Tom Anderson 35 205 34:28.4 11:07/M
12 Robert Dowling 38 211 34:30.3 11:08/M
13 Josh Dewley 40 224 35:00.7 11:17/M
14 Eric Martinson 35 293 36:36.6 11:48/M
15 Bill Luebs 39 311 36:50.9 11:53/M
16 Michael Tressel 40 317 36:58.7 11:55/M
17 Matthew Winans 40 353 37:59.6 12:15/M
18 Brandon Nixon 32 371 38:31.3 12:25/M
19 Lance Wilkinson 40 394 39:02.3 12:35/M
20 Adam Van Dusen 36 403 39:16.1 12:40/M
21 Edward Spagnuolo 37 479 41:14.3 13:18/M
22 Michael Roberts 35 536 42:46.1 13:48/M
23 Chucho Chavez 40 560 43:12.0 13:56/M
24 Todd Belding 40 656 45:51.7 14:47/M
25 Scott Fishel 35 659 45:54.0 14:48/M
26 Jim Ingram 39 705 47:24.6 15:17/M
27 Marcos Rodriguez 30 730 49:05.9 15:50/M
28 Tim Ladiski 40 799 51:33.5 16:38/M
29 Jason Kerschke 37 815 52:23.2 16:54/M
30 Eric Lautzenheiser 32 845 53:03.0 17:07/M
31 Matt Kribs 37 849 53:23.7 17:13/M

Female 41 to 50

Place Name Age Overall Total Time Pace
1 Stacy Dickert-Conlin 45 37 28:04.8 9:03/M
2 Cristy Krupp 41 80 31:01.7 10:00/M
3 Natalie Mash 46 93 31:30.4 10:10/M
4 Angie Ellsworth 44 101 31:34.6 10:11/M
5 Lenora Dibble 49 116 31:56.0 10:18/M
6 Amiee Vondrasek 45 154 33:13.1 10:43/M
7 Melissa Wriggelsworth 45 162 33:22.7 10:46/M
8 Sarah Spencley 41 163 33:23.8 10:46/M
9 Dede Beck 41 193 34:07.0 11:00/M
10 Jennifer Hall 44 196 34:10.3 11:01/M
11 Tori Winiarski 41 221 34:48.7 11:14/M
12 Suzie Jager 46 231 35:12.9 11:21/M
13 Tracey Booth 48 247 35:36.5 11:29/M
14 Kimberly Betts 42 249 35:38.8 11:30/M
15 Michelle Becher 47 261 35:59.3 11:36/M
16 Stephanie McKay 41 297 36:43.4 11:51/M
17 Tanya Brodberg 41 329 37:20.7 12:03/M
18 Libby Kirschner 43 336 37:32.1 12:06/M
19 Therese Noonan 46 373 38:34.2 12:26/M
20 Denise Wenzlick 43 379 38:42.0 12:29/M
21 Jennifer Vanderklok 41 387 38:46.1 12:30/M
22 Kristin Van Dusen 43 402 39:15.8 12:40/M
23 Robin Stinson 46 426 39:44.7 12:49/M
24 Sherry Devos 50 438 40:06.5 12:56/M
25 Annie Crowe 44 443 40:08.9 12:57/M
26 Caryn Arundel 45 455 40:30.9 13:04/M
27 Michelle Ladiski 42 457 40:32.2 13:05/M
28 Andrea Charles 45 467 40:50.5 13:10/M
29 Pam Schnebelt 46 478 41:13.7 13:18/M
30 Rachel Gutting 42 495 41:39.9 13:26/M
31 Kathy Delgado 47 497 41:41.3 13:27/M
32 Liesel Carlson 43 498 41:42.4 13:27/M
33 Elaine Sheedlo 46 511 42:09.4 13:36/M
34 Janean Kregger 43 520 42:22.0 13:40/M
35 Dana Lawrence 45 528 42:31.0 13:43/M
36 Laura Olson 41 543 42:54.5 13:50/M
37 Yvonne Connelly 50 544 42:54.8 13:50/M
38 Rene Vincke 48 547 43:00.7 13:52/M
39 Jennifer Sweet 44 562 43:19.5 13:58/M
40 Krista Hudak 41 594 44:10.3 14:15/M
41 Katie Greenfelder 43 603 44:21.8 14:18/M
42 Robin Wendling 43 615 44:38.2 14:24/M
43 Mary Pumford 48 616 44:38.4 14:24/M
44 Janena Kregger 43 622 44:40.7 14:25/M
45 Rene Adler 45 638 45:15.1 14:36/M
46 Marlene Sherwood 49 639 45:21.5 14:38/M
47 Susan Gruber 50 641 45:30.2 14:41/M
48 Barbara Lacey 46 650 45:45.2 14:45/M
49 Teresa Defrenn 42 704 47:24.0 15:17/M
50 Mary Harris 43 707 47:33.8 15:20/M
51 Mitsi Ayotte 43 729 49:05.7 15:50/M
52 Barb Orr 42 739 49:17.4 15:54/M
53 Catherine Mahler 45 755 49:27.9 15:57/M
54 Shannon Nauslar 42 756 49:31.0 15:58/M
55 Lisa Tibbits 46 759 49:51.9 16:05/M
56 Jackie Corey 44 763 50:12.9 16:12/M
57 Angel Brewer 42 764 50:13.3 16:12/M
58 Kim Spaeth 41 770 50:30.4 16:17/M
59 Rachel Lantu 41 789 51:15.4 16:32/M
60 June Hicks 45 854 53:40.0 17:19/M
61 Jennifer King 43 855 53:48.7 17:21/M
62 Amber Chambers 42 881 56:28.2 18:13/M
63 Dawn Hardin 46 890 57:02.8 18:24/M
64 Rachel Knox 41 897 57:14.6 18:28/M

Male 41 to 50

Place Name Age Overall Total Time Pace
1 John Adado 47 14 25:40.5 8:17/M
2 Joe Johnson 41 24 27:08.3 8:45/M
3 Emanuel Tho-Biaz 47 70 30:22.7 9:48/M
4 Mike Reigler 41 105 31:41.3 10:13/M
5 Mark Paris 43 121 32:09.4 10:22/M
6 John Ackerman 50 133 32:34.7 10:30/M
7 Brian Wendling 49 142 32:47.5 10:35/M
8 Will Polleys 43 181 33:54.7 10:56/M
9 Jeff Korb 43 200 34:21.1 11:05/M
10 Mike Knauff 44 234 35:17.5 11:23/M
11 Dan Gillett 43 243 35:28.8 11:26/M
12 Adam Candeub 46 287 36:26.2 11:45/M
13 Tim Dardas 41 327 37:17.5 12:02/M
14 Brian Forsyth 42 376 38:39.7 12:28/M
15 Eulsoo Kim 46 381 38:44.2 12:30/M
16 Matt Phillips 45 407 39:26.3 12:43/M
17 Glen Staszewski 43 529 42:31.7 13:43/M
18 Craig Wininger 41 534 42:43.6 13:47/M
19 Guy Rooney 44 553 43:03.7 13:53/M
20 Ashith Pabbathi 41 585 43:50.5 14:08/M
21 Glen Gutting 44 614 44:33.8 14:22/M
22 Scott Loveridge 50 629 44:45.5 14:26/M
23 Brian Burtrum 42 676 46:28.0 14:59/M
24 Sean Cooney 41 677 46:28.6 14:59/M
25 Gary Kinzer 45 699 47:10.1 15:13/M
26 Parag Doshi 41 768 50:22.3 16:15/M
27 Shane Hix 44 774 50:38.9 16:20/M

Female 51 and up

Place Name Age Overall Total Time Pace
1 Clara Pitt 55 25 27:13.6 8:47/M
2 Debby Mansel 57 33 27:52.6 8:59/M
3 Hanh Dinh 52 136 32:37.5 10:31/M
4 Angela Dardas 52 217 34:39.5 11:11/M
5 Sue Ackerman 56 227 35:06.2 11:19/M
6 Sonya Martin 51 437 40:01.6 12:55/M
7 Gene Diebler 61 505 41:54.2 13:31/M
8 Julie Stadelman 55 591 44:05.6 14:13/M
9 Michelle Myers 54 651 45:45.7 14:45/M
10 Lori Baker 59 690 46:51.0 15:07/M
11 Connie Ball 52 701 47:12.6 15:14/M
12 Sue Coles 67 724 48:52.0 15:46/M
13 Leedona Miller 61 792 51:16.5 16:32/M
14 Vicki Pursley 61 804 51:42.1 16:41/M

Male 51 and up

Place Name Age Overall Total Time Pace
1 William Hass 61 22 27:02.7 8:43/M
2 David Way 60 281 36:17.5 11:42/M
3 Michael Lorey 52 404 39:18.3 12:41/M
4 Dan Bewersdorff 64 554 43:04.0 13:54/M
5 Bruce Bragg 71 593 44:10.3 14:15/M
6 Morrie Coles 68 723 48:51.3 15:45/M
7 Marty Cartin 60 793 51:21.1 16:34/M
8 Mark Van House 52 821 52:27.5 16:55/M
9 Larry Nishon 60 894 57:11.2 18:27/M
10 Gracheann Nishon 59 895 57:11.7 18:27/M

Female no age provided

Place Name Age Overall Total Time Pace
1 Karen Sanders 99 6 24:27.8 7:53/M
2 Aubrey Minarik 99 10 24:46.5 7:59/M
3 Karyn Wendling 99 18 26:08.8 8:26/M
4 Chloe Krupp 99 19 26:11.9 8:27/M
5 Kathy Valasek 99 32 27:51.2 8:59/M
6 Miller Lantis 99 34 27:56.3 9:01/M
7 Megan Sweers 99 39 28:24.5 9:10/M
8 Janeen Dvorak 99 42 28:34.2 9:13/M
9 Clara Krupp 99 62 29:49.9 9:37/M
10 Kim Kiesling 99 63 30:00.8 9:41/M
11 Jodie Lademan 99 66 30:02.8 9:41/M
12 Rachel Vincke 99 68 30:14.8 9:45/M
13 Jamie Krupp 99 69 30:19.8 9:47/M
14 Vonda Evans 99 77 30:54.4 9:58/M
15 Lindy Beckman 99 88 31:13.2 10:04/M
16 Audra Hartges 99 89 31:14.9 10:05/M
17 Bea Wilbur 99 117 32:00.7 10:19/M
18 Misty Andruszko 99 150 33:11.3 10:42/M
19 Missy Sovis 99 175 33:45.4 10:53/M
20 Angie Florian 99 242 35:20.0 11:24/M
21 Lisa Waterson 99 250 35:41.0 11:31/M
22 Karie Hofstetter 99 290 36:33.9 11:47/M
23 Becca Schorfhaar 99 304 36:46.7 11:52/M
24 Jenna Whitney 99 321 37:05.3 11:58/M
25 Dawn Fults 99 322 37:10.5 11:59/M
26 Sara Cooper 99 331 37:24.0 12:04/M
27 Krista Johnson 99 333 37:24.7 12:04/M
28 Emily Wenzlick 99 342 37:42.0 12:10/M
29 Jillian Rau 99 343 37:45.9 12:11/M
30 Kristen Mitchell 99 348 37:47.2 12:11/M
31 Kelsey Slemp 99 398 39:06.4 12:37/M
32 Abby Elbing 99 408 39:26.9 12:43/M
33 Amber Whitman 99 432 39:52.4 12:52/M
34 Stacy Rolfe 99 434 39:52.4 12:52/M
35 Shannon Hajek 99 458 40:34.0 13:05/M
36 Brenda Martin 99 471 40:52.1 13:11/M
37 Kristin Belmas 99 506 41:58.6 13:32/M
38 Colleen Bishop 99 509 42:09.0 13:36/M
39 Courtney King 99 519 42:20.9 13:39/M
40 Brenda Draher 99 524 42:23.4 13:40/M
41 Cindy Brown 99 564 43:22.5 13:59/M
42 Sheila Lienau 99 575 43:31.4 14:02/M
43 Sarah Pfund 99 581 43:49.8 14:08/M
44 Misti Leitelt 99 588 43:53.0 14:09/M
45 Raygen Jaques 99 597 44:11.1 14:15/M
46 Jennifer Jaques 99 598 44:11.7 14:15/M
47 Melodie Burgess 99 607 44:25.0 14:20/M
48 Felicia Lutz 99 617 44:39.1 14:24/M
49 Shawntel Henry 99 632 44:59.3 14:31/M
50 Melissa Holbrook 99 643 45:35.0 14:42/M
51 Heather Taylor 99 644 45:35.1 14:42/M
52 Jessica Hartges 99 684 46:36.5 15:02/M
53 Kayla Richmond 99 737 49:15.3 15:53/M
54 Samantha Stiles 99 811 52:03.4 16:47/M
55 Aimee Hamilton 99 812 52:13.6 16:51/M
56 Patricia Miller 99 835 52:49.1 17:02/M
57 Christine Yager 99 836 52:49.7 17:02/M
58 Korrie Birchmeier 99 851 53:27.0 17:15/M
59 Maggie Stone 99 875 55:51.1 18:01/M
60 Katy Stone 99 876 55:57.7 18:03/M
61 Gloria Hetfield 99 885 56:42.3 18:17/M

Male no age provided

Place Name Age Overall Total Time Pace
1 Jason Summerland 99 76 30:34.3 9:52/M
2 Rod Taylor 99 86 31:11.1 10:04/M
3 Timoth Feldpausch 99 137 32:42.3 10:33/M
4 Mike Brya 99 199 34:18.9 11:04/M
5 Dustin Wycliffe 99 265 36:01.8 11:37/M
6 Scott Sovis 99 514 42:12.2 13:37/M
7 Brian Ashley 99 620 44:39.9 14:24/M
8 Phil Warren 99 715 47:51.2 15:26/M
9 Wes Vore 99 837 52:52.0 17:03/M